Other Public Products
Issued by NWS Grand Forks, ND

Home | Current Version | Previous Version | Graphics & Text | Print | Product List | Glossary On
Versions: 1 2 3 4 5 6 7 8 9 10 11 12 13 14 15 16 17 18 19 20 21 22 23 24 25 26 27 28 29 30 31 32 33 34 35 36 37 38 39 40 41 42 43 44 45 46 47 48 49 50
000
FPUS83 KFGF 230831
OPUFGF
PRAIRIE TO PINES WEATHER ROUNDUP
NATIONAL WEATHER SERVICE EASTERN NORTH DAKOTA/GRAND FORKS ND
300 AM CDT TUE AUG 23 2016

 **SATELLITE DATA USED TO AUGMENT SKY COVER AT AUTOMATED STATIONS**
 *****  WEATHER ACROSS EASTERN NORTH DAKOTA  *****

CITY           SKY/WX    TMP DP  RH WIND       PRES   REMARKS
GRAND FORKS    LGT RAIN  73  67  81 S22G28    29.63F
GRAND FORKS AF TSTM      72  68  88 S20G28    29.63S
GRAND CITY NWS NOT AVBL
BUXTON           N/A     73  71  93 E5          N/A
DEVILS LAKE    CLEAR     73  68  84 SE17      29.61F
FARGO          PTCLDY    72  64  76 S17G25    29.68R
WAHPETON ARPT  MOSUNNY   66  61  82 SE13G20   29.72F
$$

 *****  WEATHER ACROSS CENTRAL AND WESTERN NORTH DAKOTA  *****

CITY           SKY/WX    TMP DP  RH WIND       PRES   REMARKS
JAMESTOWN      CLEAR     71  65  81 S15       29.61S
BISMARCK       CLEAR     65  62  90 CALM      29.57F
MINOT          CLEAR     64  63  96 N3        29.58F FOG
MINOT AFB      CLEAR     65  64  97 NE3       29.58S
GARRISON         N/A     63  62  97 NW3       29.59R
WILLISTON      CLOUDY    59  41  51 NE3       29.65R
DICKINSON      CLOUDY    57  55  93 W12       29.64R
HETTINGER      CLEAR     60  53  77 CALM      29.65R
$$

 *****  OTHER OBSERVATIONS NORTHEAST NORTH DAKOTA  *****

CITY           SKY/WX    TMP DP  RH WIND       PRES   REMARKS
WALHALLA       FAIR      63  63 100 SE6       29.65R
LANGDON        CLOUDY    68  68 100 SE10      29.65S
CAVALIER       FAIR      64  64 100 CALM      29.64S
GRAFTON        FAIR      72  70  94 SE8G14    29.65S
CANDO          FAIR      68  68 100 E9        29.61F
FORT TOTTEN    NOT AVBL
ROLLA          FAIR      64  64 100 CALM      29.63F
RUGBY          NOT AVBL
 ***** THE ABOVE OBSERVATIONS ARE NON NWS ARE NOT QUALITY
        CONTROLLED AND MAY MIS-REPORT RAIN FOR SNOW...
$$

 *****  OTHER OBSERVATIONS SOUTHEAST NORTH DAKOTA *****

CITY           SKY/WX    TMP DP  RH WIND       PRES   REMARKS
COOPERSTOWN    NOT AVBL
VALLEY CITY    FAIR      72  68  88 S15       29.66S
OAKES            N/A    N/A N/A N/A MISG        N/A
GWINNER        FAIR      73  64  73 S22G28    29.66S
SHEYENNE NWR     N/A     72  64  76 S9        29.95S
BUFFALO          N/A     67  64  91 SE9         N/A
WYNDMERE         N/A     70  64  83 S7          N/A
 ***** THE ABOVE OBSERVATIONS ARE NON NWS ARE NOT QUALITY
       CONTROLLED AND MAY MIS-REPORT RAIN FOR SNOW...
$$

  *****  WEATHER ACROSS NORTHERN MINNESOTA  *****

CITY           SKY/WX    TMP DP  RH WIND       PRES   REMARKS
FLAG ISLAND    CLEAR     70  66  88 CALM      29.74F FOG
WARROAD        CLOUDY    64  61  88 SE5       29.75R
ROSEAU         CLOUDY    66  61  82 E5        29.73R
HALLOCK        CLOUDY    70  66  88 E9        29.64F
THF RVR FALLS  CLOUDY    71  67  87 S9        29.74R
HALSTAD          N/A     71  64  79 S12         N/A
FOSSTON        CLOUDY    70  63  78 S8        29.77R
BAUDETTE       CLEAR     65  63  93 SE6       29.76S
WASKISH        CLEAR     70  64  83 S5        29.78R
CROOKSTON      CLOUDY    72  66  83 SE8       29.72R
$$
  *****  WEATHER ACROSS CENTRAL AND WEST MINNESOTA  *****

CITY           SKY/WX    TMP DP  RH WIND       PRES   REMARKS
BEMIDJI        PTCLDY    70  63  80 S7        29.80R
PARK RAPIDS    CLEAR     69  62  78 SE8       29.81S
WADENA         CLEAR     66  61  82 SE6       29.81S
DETROIT LAKES  CLEAR     70  63  78 S10       29.78S
MOORHEAD       CLEAR     72  63  73 SE15G21   29.70S
FERGUS FALLS     N/A     70  61  73 S16G22    29.77S
ELBOW LAKE     FAIR      67  62  84 S16G24    29.78S
MORRIS MN      CLEAR     66  63  88 SE10      29.79S
STAPLES        CLEAR     66  61  82 S8        29.83S
WHEATON        CLEAR     72  64  78 SE10      29.76S
$$
  *****  WEATHER ELSEWHERE ACROSS MINNESOTA  *****

CITY           SKY/WX    TMP DP  RH WIND       PRES   REMARKS
DULUTH         CLEAR     68  60  75 SW13      29.90S
INTRNTL FALLS  CLEAR     62  60  93 SE5       29.80S
ELY            CLEAR     66  61  82 SW8       29.88S
CLOQUET        CLEAR     64  57  77 S8        29.90S
BRAINERD       CLEAR     67  61  81 S10       29.86S
HIBBING        CLEAR     64  60  87 S3        29.87S
ALEXANDRIA     CLEAR     69  61  75 S17       29.84R
SAINT CLOUD    CLEAR     69  61  75 S14G20    29.89R
MINNEAPOLIS    CLEAR     73  59  61 S13G23    29.94S
$$

  *****  WEATHER ACROSS SOUTH DAKOTA  *****

CITY           SKY/WX    TMP DP  RH WIND       PRES   REMARKS
SIOUX FALLS    MOCLDY    70  60  70 S16G24    29.88R
BROOKINGS      MOCLDY    68  60  75 S18G24    29.84
WATERTOWN      CLOUDY    70  61  73 S16G23    29.80S
HURON          PTCLDY    70  61  73 S15G24    29.74F
SISSETON         N/A     74  61  63 S22G28    29.70S
ABERDEEN       PTCLDY    72  62  71 S20G28    29.68F
MITCHELL       CLEAR     70  61  73 S13       29.80S
PIERRE         CLEAR     74  60  61 SE10      29.66S
MOBRIDGE       CLEAR     77  60  55 SE10      29.61R
RAPID CITY     CLEAR     61  47  59 SE3       29.69F
$$

  *****  SOME WEATHER IN NEARBY STATES *****

CITY           SKY/WX    TMP DP  RH WIND       PRES   REMARKS
GLASGOW MT     CLOUDY    60  33  36 W12       29.76F
GREAT FALLS MT CLOUDY    50  28  42 SW10      29.94R
CHEYENNE WY    CLEAR     65  35  33 W15       29.99F
SCOTTSBLUFF NE CLEAR     60  55  83 E8        29.84S
OMAHA NE       MOCLDY    71  61  70 S15       29.96F
DES MOINES IA  PTCLDY    66  60  81 S8        30.03F
DAVENPORT IA   CLEAR     63  57  81 S8        30.13F
CHICAGO IL     CLEAR     63  58  83 S8        30.17F
EAU CLAIRE WI  CLOUDY    68  60  75 S8        30.01R
LA CROSSE WI   CLOUDY    69  67  93 S12       30.05S
$$

  *****  SOME NATIONAL WEATHER *****

CITY           SKY/WX    TMP DP  RH WIND       PRES   REMARKS
LA GUARDIA NY  CLEAR     69  49  48 W6        30.24R
RALEIGH NC     MOCLDY    70  60  70 E8        30.22S
ATLANTA GA     PTCLDY    75  67  76 CALM      30.19S
NEW ORLEANS LA MOCLDY    81  74  79 W3        30.12F
OKLAHOMA CITY  CLOUDY    75  72  90 S15G22    30.03F
ALBUQUERQUE NM CLOUDY    64  59  83 NE5       30.18F
SALT LAKE CITY MOCLDY    76  38  25 SE10      29.99R
LOS ANGELES CA PTCLDY    66  61  84 CALM      29.95F
BOISE ID       CLEAR     62  30  29 W8        29.98R
SEATTLE WA     CLEAR     62  49  62 N7        30.13S
$$

*** WEATHER ACROSS MANITOBA...SASKATCHEWAN AND ONTARIO ***
                ***ONTARIO***

CITY           SKY/WX    TMP DP  RH WIND       PRES   REMARKS
GERALDTON      PTCLDY    63  59  88 SW9       29.85R
THUNDER BAY    PTCLDY    61  61 100 CALM      29.86S
SIOUX LOOKOUT  CLEAR     63  63 100 VRB2      29.81R
TORONTO        CLEAR     61  52  72 SW5       30.23R
BIG TROUT LK   CLEAR     52  46  82 N6        29.84R
PICKLE LAKE    NOT AVBL
DRYDEN         CLEAR     66  63  88 S5        29.81R
KENORA         CLEAR     64  63  94 SE5       29.78S
$$
                *** MANITOBA***

CITY           SKY/WX    TMP DP  RH WIND       PRES   REMARKS
BRANDON        PTCLDY    61  61 100 E7        29.62F
DAUPHIN        PTCLDY    59  59 100 W6        29.60F
ISLAND LAKE    PTCLDY    57  48  72 NE6       29.85R
PILOT MOUND      N/A     64  64 100 E8          N/A
THE PAS        CLOUDY    59  52  77 E8        29.74S
THOMPSON       NOT AVBL
WINNIPEG       PTCLDY    68  64  88 SE8       29.67F
LYNN LAKE      CLOUDY    52  46  82 MISG      29.92R
CHURCHILL      PTCLDY    50  50 100 W9        29.84R
GILLAM         CLEAR     46  45  93 SE6       29.89R
$$
                ***SASKATCHEWAN***

CITY           SKY/WX    TMP DP  RH WIND       PRES   REMARKS
ESTEVAN        PTCLDY    59  50  72 NW16      29.64R
KINDERSLEY     LGT RAIN  52  46  82 S12G18    29.58F
LLOYDMINSTER   MOCLDY    50  48  93 W5        29.64R
PRINCE ALBERT  MOCLDY    59  55  88 E6        29.64R
REGINA         MOCLDY    52  45  76 VRB2      29.70R
YORKTON        CLEAR     57  55  94 NW7       29.62R   C1F1C2F2C3F3C4F4C5F5C6F6C7F7C8F8C9F9CaFaCbFbCcFcCdFdCe!



USA.gov is the U.S. government's official web portal to all federal, state and local government web resources and services.